IRIDIUM 137

Last updated on Mon Sep 21 2026 00:03:07 GMT+0000 (Coordinated Universal Time)

1 43076U 17083G 26263.58221224 .00000116 00000+0 34361-4 0 9992 2 43076 86.3916 282.2806 0002013 98.2139 261.9285 14.34217855457842
UTC large
Height (km)
Speed (km/s)
/
Latitude / Longitude
Inclination (degrees)
Orbital Period (minutes)
Azimuth
Elevation
Range (km)
Doppler Factor

Next 0 passes for location: London (51.5072 / 0.1276)

No passes found over London.
IRIDIUM 137